Location: Piotrkow Trybunalski
(51.4000°N, 19.6830°E)
Time: 09:51:00
(UTC+01:00)

BlueWalker 3 - Pass Details

Date: 10 December 2022
Orbit: 499 x 517 km, 53.2° (Epoch: 29 January)

Event Time Altitude Azimuth Distance (km) Brightness Sun altitude
Rises 16:08:55 0° 287° (WNW) 2,637 6.3 -5.5°
Reaches altitude 10° 16:11:08 10° 287° (WNW) 1,745 5.4 -5.8°
Maximum altitude 16:15:05 85° 200° (SSW) 520 2.1 -6.3°
Drops below altitude 10° 16:19:00 10° 111° (ESE) 1,727 4.3 -6.9°
Sets 16:21:10 0° 111° (ESE) 2,606 5.2 -7.2°
